| time (UTC) | temp C | wind direction | speed KPH | gust KPH | rain 1hr cm | rain 24hr cm | rain mn cm | humidity % | barometer mb |
| 20260510100838 | 10 | 160 | 16.1 | 19.3 | 0.00 | 0.05 | 0.05 | 96 | 1011.0 |
| 20260510100336 | 10 | 164 | 12.9 | 19.3 | 0.00 | 0.05 | 0.05 | 96 | 1010.8 |
| 20260510095832 | 10 | 172 | 14.5 | 20.9 | 0.00 | 0.05 | 0.05 | 96 | 1010.7 |
| 20260510095327 | 10 | 148 | 20.9 | 25.7 | 0.00 | 0.05 | 0.05 | 96 | 1010.5 |
| 20260510094826 | 10 | 149 | 19.3 | 27.4 | 0.00 | 0.05 | 0.05 | 96 | 1010.1 |
| 20260510094322 | 10 | 150 | 17.7 | 30.6 | 0.00 | 0.05 | 0.05 | 96 | 1010.4 |
| 20260510093819 | 10 | 157 | 24.1 | 24.1 | 0.00 | 0.05 | 0.05 | 96 | 1010.5 |
| 20260510093315 | 10 | 165 | 17.7 | 20.9 | 0.00 | 0.05 | 0.05 | 96 | 1010.6 |
| 20260510092811 | 10 | 168 | 17.7 | 24.1 | 0.00 | 0.05 | 0.05 | 96 | 1010.5 |
| 20260510092307 | 10 | 174 | 16.1 | 24.1 | 0.00 | 0.05 | 0.05 | 95 | 1010.3 |
| 20260510091803 | 10 | 160 | 20.9 | 25.7 | 0.00 | 0.05 | 0.05 | 95 | 1010.1 |
| 20260510091301 | 10 | 159 | 19.3 | 29.0 | 0.00 | 0.05 | 0.05 | 95 | 1010.1 |
| 20260510090756 | 10 | 154 | 19.3 | 30.6 | 0.00 | 0.05 | 0.05 | 95 | 1009.9 |
| 20260510090253 | 10 | 158 | 20.9 | 25.7 | 0.00 | 0.05 | 0.05 | 95 | 1010.0 |
| 20260510085749 | 10 | 150 | 17.7 | 22.5 | 0.00 | 0.05 | 0.05 | 95 | 1010.0 |
| 20260510085243 | 10 | 151 | 20.9 | 30.6 | 0.00 | 0.05 | 0.05 | 95 | 1010.0 |
| 20260510084739 | 10 | 154 | 16.1 | 25.7 | 0.00 | 0.05 | 0.05 | 95 | 1009.9 |
| 20260510084237 | 10 | 154 | 24.1 | 27.4 | 0.00 | 0.05 | 0.05 | 95 | 1009.6 |
| 20260510083733 | 10 | 154 | 20.9 | 25.7 | 0.00 | 0.05 | 0.05 | 95 | 1009.6 |
| 20260510083231 | 10 | 141 | 17.7 | 25.7 | 0.00 | 0.05 | 0.05 | 95 | 1009.6 |
| 20260510082726 | 10 | 150 | 20.9 | 22.5 | 0.00 | 0.05 | 0.05 | 95 | 1009.7 |
| 20260510082223 | 10 | 138 | 12.9 | 17.7 | 0.00 | 0.05 | 0.05 | 95 | 1010.0 |
| 20260510081722 | 10 | 145 | 11.3 | 24.1 | 0.00 | 0.05 | 0.05 | 95 | 1009.9 |
| 20260510081218 | 10 | 139 | 17.7 | 19.3 | 0.00 | 0.05 | 0.05 | 95 | 1009.7 |
| 20260510080713 | 11 | 143 | 12.9 | 27.4 | 0.00 | 0.05 | 0.05 | 95 | 1010.0 |
| 20260510080209 | 10 | 140 | 20.9 | 27.4 | 0.00 | 0.05 | 0.05 | 95 | 1009.6 |
| 20260510075706 | 10 | 137 | 20.9 | 27.4 | 0.05 | 0.05 | 0.05 | 95 | 1009.7 |
| 20260510075204 | 10 | 139 | 20.9 | 24.1 | 0.05 | 0.05 | 0.05 | 95 | 1009.9 |
| 20260510074701 | 10 | 136 | 14.5 | 22.5 | 0.00 | 0.05 | 0.05 | 95 | 1010.1 |
| 20260510074156 | 10 | 142 | 17.7 | 25.7 | 0.00 | 0.05 | 0.05 | 95 | 1010.0 |
| 20260510073654 | 10 | 139 | 17.7 | 29.0 | 0.00 | 0.05 | 0.05 | 95 | 1010.0 |
| 20260510073149 | 10 | 144 | 14.5 | 24.1 | 0.00 | 0.05 | 0.05 | 95 | 1010.1 |
| 20260510072645 | 10 | 133 | 14.5 | 22.5 | 0.00 | 0.05 | 0.05 | 95 | 1010.0 |
| 20260510072142 | 11 | 136 | 17.7 | 24.1 | 0.05 | 0.05 | 0.05 | 94 | 1010.5 |
| 20260510071638 | 10 | 150 | 16.1 | 24.1 | 0.00 | 0.05 | 0.05 | 94 | 1010.6 |
| 20260510071136 | 10 | 148 | 16.1 | 20.9 | 0.00 | 0.05 | 0.05 | 94 | 1010.2 |
| 20260510070633 | 10 | 137 | 19.3 | 24.1 | 0.00 | 0.05 | 0.05 | 94 | 1010.2 |
| 20260510070131 | 10 | 140 | 12.9 | 22.5 | 0.05 | 0.05 | 0.05 | 94 | 1010.2 |
| 20260510065626 | 10 | 150 | 16.1 | 24.1 | 0.05 | 0.03 | 0.03 | 93 | 1010.4 |
| 20260510065122 | 11 | 142 | 16.1 | 24.1 | 0.13 | 0.03 | 0.03 | 92 | 1010.4 |
| 20260510064619 | 11 | 154 | 17.7 | 19.3 | 0.05 | 0.00 | 0.00 | 91 | 1010.6 |
| 20260510064116 | 11 | 149 | 19.3 | 24.1 | 0.05 | 0.00 | 0.00 | 90 | 1010.6 |
| 20260510063612 | 11 | 156 | 22.5 | 25.7 | 0.00 | 0.00 | 0.00 | 89 | 1010.5 |
| 20260510063109 | 11 | 160 | 17.7 | 29.0 | 0.00 | 0.00 | 0.00 | 89 | 1010.5 |
| 20260510062605 | 11 | 160 | 17.7 | 22.5 | 0.00 | 0.00 | 0.00 | 89 | 1010.6 |
| 20260510062100 | 11 | 154 | 19.3 | 29.0 | 0.00 | 0.00 | 0.00 | 88 | 1010.4 |
| 20260510061552 | 11 | 155 | 22.5 | 25.7 | 0.00 | 0.00 | 0.00 | 88 | 1010.4 |
| 20260510061049 | 11 | 157 | 19.3 | 27.4 | 0.00 | 0.00 | 0.00 | 89 | 1010.3 |
| 20260510060545 | 11 | 152 | 17.7 | 22.5 | 0.00 | 0.00 | 0.00 | 89 | 1010.3 |
| 20260510060041 | 11 | 141 | 12.9 | 17.7 | 0.00 | 0.00 | 0.00 | 89 | 1010.3 |
| 20260510055537 | 11 | 151 | 12.9 | 17.7 | 0.00 | 0.00 | 0.00 | 89 | 1010.0 |
| 20260510055036 | 11 | 141 | 11.3 | 19.3 | 0.00 | 0.00 | 0.00 | 89 | 1010.1 |
| 20260510054531 | 11 | 145 | 12.9 | 19.3 | 0.00 | 0.00 | 0.00 | 89 | 1010.3 |
| 20260510054026 | 11 | 147 | 12.9 | 19.3 | 0.00 | 0.00 | 0.00 | 89 | 1010.2 |
| 20260510053521 | 11 | 151 | 14.5 | 20.9 | 0.00 | 0.00 | 0.00 | 90 | 1010.1 |
| 20260510053018 | 11 | 147 | 14.5 | 27.4 | 0.00 | 0.00 | 0.00 | 90 | 1010.2 |
| 20260510052514 | 11 | 144 | 11.3 | 20.9 | 0.00 | 0.00 | 0.00 | 90 | 1010.3 |
| 20260510052011 | 11 | 157 | 22.5 | 24.1 | 0.00 | 0.00 | 0.00 | 90 | 1010.5 |
| 20260510051506 | 11 | 159 | 17.7 | 25.7 | 0.00 | 0.00 | 0.00 | 90 | 1010.4 |
| 20260510051003 | 11 | 152 | 12.9 | 22.5 | 0.00 | 0.00 | 0.00 | 90 | 1010.3 |
| 20260510050500 | 11 | 168 | 20.9 | 27.4 | 0.00 | 0.00 | 0.00 | 90 | 1010.3 |
| 20260510045957 | 11 | 156 | 19.3 | 25.7 | 0.00 | 0.00 | 0.00 | 90 | 1010.1 |
| 20260510045454 | 11 | 155 | 24.1 | 24.1 | 0.00 | 0.00 | 0.00 | 90 | 1010.4 |
| 20260510044950 | 11 | 149 | 16.1 | 30.6 | 0.00 | 0.00 | 0.00 | 90 | 1010.3 |
| 20260510044447 | 11 | 149 | 16.1 | 24.1 | 0.00 | 0.00 | 0.00 | 91 | 1010.2 |
| 20260510043944 | 11 | 166 | 20.9 | 29.0 | 0.00 | 0.00 | 0.00 | 90 | 1010.4 |
| 20260510043440 | 11 | 156 | 25.7 | 29.0 | 0.00 | 0.00 | 0.00 | 90 | 1010.3 |
| 20260510042938 | 11 | 152 | 20.9 | 32.2 | 0.00 | 0.00 | 0.00 | 90 | 1010.0 |
| 20260510042434 | 11 | 150 | 22.5 | 24.1 | 0.00 | 0.00 | 0.00 | 90 | 1010.1 |
| 20260510041930 | 11 | 157 | 24.1 | 29.0 | 0.00 | 0.00 | 0.00 | 89 | 1010.3 |
| 20260510041427 | 11 | 161 | 20.9 | 27.4 | 0.00 | 0.00 | 0.00 | 88 | 1010.1 |
| 20260510040925 | 10 | 155 | 19.3 | 25.7 | 0.00 | 0.00 | 0.00 | 88 | 1010.0 |
| 20260510040422 | 10 | 161 | 19.3 | 27.4 | 0.00 | 0.00 | 0.00 | 88 | 1009.8 |
| 20260510035917 | 10 | 174 | 20.9 | 22.5 | 0.00 | 0.03 | 0.03 | 89 | 1009.9 |
| 20260510035414 | 10 | 153 | 22.5 | 25.7 | 0.00 | 0.03 | 0.03 | 88 | 1009.8 |
| 20260510034914 | 10 | 168 | 17.7 | 22.5 | 0.00 | 0.03 | 0.03 | 89 | 1009.8 |
| 20260510034413 | 10 | 161 | 17.7 | 27.4 | 0.00 | 0.03 | 0.03 | 89 | 1009.8 |
| 20260510033908 | 10 | 155 | 20.9 | 22.5 | 0.00 | 0.03 | 0.03 | 90 | 1010.0 |
| 20260510033405 | 10 | 153 | 17.7 | 24.1 | 0.00 | 0.03 | 0.03 | 89 | 1009.9 |
| 20260510032902 | 10 | 158 | 17.7 | 24.1 | 0.00 | 0.03 | 0.03 | 90 | 1010.1 |
| 20260510032358 | 10 | 169 | 16.1 | 22.5 | 0.00 | 0.03 | 0.03 | 90 | 1010.1 |
| 20260510031854 | 10 | 162 | 19.3 | 24.1 | 0.00 | 0.03 | 0.03 | 90 | 1010.3 |
| 20260510031349 | 10 | 164 | 22.5 | 24.1 | 0.00 | 0.03 | 0.03 | 91 | 1010.3 |
| 20260510030849 | 10 | 161 | 17.7 | 27.4 | 0.00 | 0.03 | 0.03 | 91 | 1010.2 |
| 20260510030346 | 10 | 166 | 20.9 | 24.1 | 0.00 | 0.03 | 0.03 | 91 | 1010.3 |
| 20260510025843 | 10 | 171 | 17.7 | 25.7 | 0.00 | 0.03 | 0.03 | 91 | 1010.1 |
| 20260510025341 | 10 | 162 | 20.9 | 24.1 | 0.00 | 0.03 | 0.03 | 91 | 1010.1 |
| 20260510024837 | 10 | 170 | 19.3 | 22.5 | 0.00 | 0.03 | 0.03 | 91 | 1010.3 |
| 20260510024334 | 10 | 158 | 14.5 | 20.9 | 0.00 | 0.03 | 0.03 | 91 | 1010.4 |
| 20260510023830 | 10 | 178 | 12.9 | 14.5 | 0.00 | 0.03 | 0.03 | 91 | 1010.4 |
| 20260510023327 | 10 | 167 | 11.3 | 14.5 | 0.00 | 0.03 | 0.03 | 91 | 1010.4 |
| 20260510022824 | 10 | 157 | 12.9 | 20.9 | 0.00 | 0.03 | 0.03 | 92 | 1010.3 |
| 20260510022323 | 10 | 164 | 11.3 | 14.5 | 0.00 | 0.03 | 0.03 | 93 | 1010.3 |
| 20260510021823 | 10 | 159 | 14.5 | 17.7 | 0.00 | 0.03 | 0.03 | 92 | 1010.5 |
| 20260510021321 | 10 | 164 | 12.9 | 14.5 | 0.00 | 0.03 | 0.03 | 93 | 1010.5 |
| 20260510020817 | 10 | 182 | 11.3 | 11.3 | 0.00 | 0.03 | 0.03 | 93 | 1010.4 |
| 20260510020312 | 10 | 168 | 16.1 | 17.7 | 0.00 | 0.03 | 0.03 | 93 | 1010.4 |
| 20260510015808 | 10 | 179 | 14.5 | 17.7 | 0.00 | 0.03 | 0.03 | 93 | 1010.4 |
| 20260510015306 | 10 | 155 | 17.7 | 17.7 | 0.00 | 0.03 | 0.03 | 94 | 1010.2 |
| 20260510014759 | 10 | 165 | 11.3 | 16.1 | 0.00 | 0.03 | 0.03 | 94 | 1010.6 |
| 20260510014256 | 10 | 191 | 8.0 | 12.9 | 0.00 | 0.03 | 0.03 | 94 | 1010.6 |
| 20260510013752 | 10 | 172 | 11.3 | 14.5 | 0.00 | 0.03 | 0.03 | 94 | 1010.6 |
| 20260510013248 | 10 | 167 | 8.0 | 14.5 | 0.00 | 0.03 | 0.03 | 94 | 1010.5 |
| 20260510012743 | 10 | 164 | 8.0 | 14.5 | 0.00 | 0.03 | 0.03 | 94 | 1010.7 |
| 20260510012238 | 10 | 160 | 14.5 | 17.7 | 0.00 | 0.03 | 0.03 | 94 | 1010.6 |
| 20260510011737 | 10 | 180 | 8.0 | 12.9 | 0.00 | 0.03 | 0.03 | 94 | 1010.7 |
| 20260510011233 | 10 | 170 | 11.3 | 12.9 | 0.00 | 0.03 | 0.03 | 94 | 1010.6 |
| 20260510010731 | 10 | 159 | 11.3 | 12.9 | 0.00 | 0.03 | 0.03 | 95 | 1010.6 |
| 20260510010227 | 10 | 168 | 8.0 | 14.5 | 0.00 | 0.03 | 0.03 | 95 | 1010.8 |
| 20260510005724 | 10 | 150 | 12.9 | 16.1 | 0.00 | 0.03 | 0.03 | 95 | 1010.7 |
| 20260510005220 | 10 | 141 | 6.4 | 9.7 | 0.00 | 0.03 | 0.03 | 95 | 1010.7 |
| 20260510004718 | 10 | 157 | 12.9 | 14.5 | 0.00 | 0.03 | 0.03 | 95 | 1011.0 |
| 20260510004216 | 10 | 153 | 11.3 | 12.9 | 0.00 | 0.03 | 0.03 | 95 | 1010.8 |
| 20260510003714 | 10 | 167 | 8.0 | 8.0 | 0.00 | 0.03 | 0.03 | 95 | 1010.8 |
| 20260510003209 | 10 | 174 | 4.8 | 11.3 | 0.00 | 0.03 | 0.03 | 94 | 1010.8 |
| 20260510002708 | 10 | 167 | 4.8 | 8.0 | 0.00 | 0.03 | 0.03 | 94 | 1011.1 |
| 20260510002206 | 10 | 157 | 4.8 | 6.4 | 0.00 | 0.03 | 0.03 | 95 | 1010.7 |
| 20260510001703 | 10 | 162 | 1.6 | 4.8 | 0.00 | 0.03 | 0.03 | 95 | 1010.8 |
| 20260510001201 | 10 | 194 | 3.2 | 4.8 | 0.00 | 0.03 | 0.03 | 94 | 1010.8 |
| 20260510000656 | 10 | 186 | 1.6 | 4.8 | 0.00 | 0.03 | 0.03 | 94 | 1010.8 |
| 20260510000154 | 10 | 185 | 3.2 | 3.2 | 0.00 | 0.03 | 0.03 | 94 | 1010.8 |
| 20260509235650 | 10 | 191 | 4.8 | 4.8 | 0.00 | 0.03 | 0.03 | 94 | 1010.8 |
| 20260509235147 | 10 | 177 | 3.2 | 4.8 | 0.00 | 0.03 | 0.03 | 93 | 1010.7 |
| 20260509234643 | 10 | 183 | 4.8 | 4.8 | 0.00 | 0.03 | 0.03 | 93 | 1010.6 |
| 20260509234140 | 10 | 181 | 3.2 | 4.8 | 0.00 | 0.03 | 0.03 | 93 | 1010.6 |
| 20260509233638 | 10 | 171 | 6.4 | 6.4 | 0.00 | 0.03 | 0.03 | 93 | 1010.7 |
| 20260509233135 | 10 | 153 | 8.0 | 11.3 | 0.00 | 0.03 | 0.03 | 93 | 1010.7 |
| 20260509232631 | 10 | 163 | 9.7 | 11.3 | 0.00 | 0.03 | 0.03 | 93 | 1010.8 |
| 20260509232128 | 10 | 171 | 4.8 | 8.0 | 0.00 | 0.03 | 0.03 | 93 | 1010.7 |
| 20260509231625 | 10 | 159 | 1.6 | 4.8 | 0.00 | 0.03 | 0.03 | 93 | 1010.8 |
| 20260509231123 | 10 | 212 | 4.8 | 8.0 | 0.00 | 0.03 | 0.03 | 94 | 1011.0 |
| 20260509230619 | 10 | 184 | 6.4 | 8.0 | 0.00 | 0.03 | 0.03 | 94 | 1010.6 |
| 20260509230117 | 10 | 166 | 4.8 | 8.0 | 0.00 | 0.03 | 0.03 | 94 | 1010.6 |
| 20260509225612 | 10 | 155 | 4.8 | 6.4 | 0.00 | 0.03 | 0.03 | 94 | 1010.7 |
| 20260509225108 | 10 | 148 | 9.7 | 9.7 | 0.00 | 0.03 | 0.03 | 94 | 1010.7 |
| 20260509224603 | 10 | 152 | 11.3 | 12.9 | 0.00 | 0.03 | 0.03 | 95 | 1010.7 |
| 20260509224101 | 10 | 149 | 6.4 | 14.5 | 0.00 | 0.03 | 0.03 | 95 | 1010.7 |
| 20260509223557 | 10 | 136 | 9.7 | 14.5 | 0.00 | 0.03 | 0.03 | 95 | 1010.8 |
| 20260509223055 | 10 | 157 | 8.0 | 9.7 | 0.00 | 0.03 | 0.03 | 95 | 1010.8 |
| 20260509222551 | 10 | 160 | 12.9 | 16.1 | 0.00 | 0.03 | 0.03 | 95 | 1010.8 |
| 20260509222047 | 9 | 144 | 9.7 | 16.1 | 0.00 | 0.03 | 0.03 | 95 | 1011.0 |
| 20260509221543 | 9 | 140 | 11.3 | 17.7 | 0.00 | 0.03 | 0.03 | 95 | 1011.1 |
| 20260509221039 | 10 | 147 | 9.7 | 20.9 | 0.00 | 0.03 | 0.03 | 95 | 1010.9 |
| 20260509220535 | 10 | 141 | 11.3 | 20.9 | 0.00 | 0.03 | 0.03 | 95 | 1011.3 |
| 20260509220031 | 10 | 138 | 17.7 | 24.1 | 0.00 | 0.03 | 0.03 | 94 | 1011.1 |
| 20260509215527 | 10 | 158 | 16.1 | 20.9 | 0.00 | 0.03 | 0.03 | 94 | 1011.0 |
| 20260509215024 | 10 | 139 | 14.5 | 22.5 | 0.00 | 0.03 | 0.03 | 95 | 1011.2 |
| 20260509214521 | 10 | 159 | 16.1 | 17.7 | 0.00 | 0.03 | 0.03 | 94 | 1011.2 |
| 20260509214018 | 10 | 161 | 12.9 | 16.1 | 0.00 | 0.03 | 0.03 | 95 | 1011.5 |
| 20260509213514 | 10 | 150 | 11.3 | 16.1 | 0.00 | 0.03 | 0.03 | 95 | 1011.5 |
| 20260509213011 | 10 | 166 | 9.7 | 12.9 | 0.00 | 0.03 | 0.03 | 94 | 1011.3 |
| 20260509212508 | 10 | 150 | 14.5 | 22.5 | 0.00 | 0.03 | 0.03 | 94 | 1011.3 |
| 20260509212005 | 10 | 154 | 14.5 | 22.5 | 0.00 | 0.03 | 0.03 | 94 | 1011.5 |
| 20260509211500 | 10 | 157 | 16.1 | 24.1 | 0.00 | 0.03 | 0.03 | 94 | 1011.4 |
| 20260509210957 | 10 | 161 | 14.5 | 20.9 | 0.00 | 0.03 | 0.03 | 93 | 1011.5 |
| 20260509210454 | 10 | 154 | 20.9 | 22.5 | 0.00 | 0.03 | 0.03 | 93 | 1011.6 |
| 20260509205950 | 10 | 160 | 17.7 | 20.9 | 0.00 | 0.03 | 0.03 | 92 | 1011.6 |
| 20260509205444 | 10 | 178 | 12.9 | 22.5 | 0.00 | 0.03 | 0.03 | 92 | 1011.6 |
| 20260509204941 | 10 | 181 | 11.3 | 14.5 | 0.00 | 0.03 | 0.03 | 92 | 1011.7 |
| 20260509204437 | 10 | 180 | 8.0 | 16.1 | 0.00 | 0.03 | 0.03 | 93 | 1011.5 |
| 20260509203934 | 10 | 175 | 6.4 | 14.5 | 0.00 | 0.03 | 0.03 | 92 | 1011.5 |
| 20260509203429 | 9 | 179 | 16.1 | 17.7 | 0.00 | 0.03 | 0.03 | 93 | 1011.6 |
| 20260509202927 | 9 | 169 | 11.3 | 16.1 | 0.00 | 0.03 | 0.03 | 93 | 1011.6 |
| 20260509202423 | 9 | 192 | 11.3 | 17.7 | 0.00 | 0.03 | 0.03 | 93 | 1011.9 |
| 20260509201918 | 9 | 183 | 9.7 | 14.5 | 0.00 | 0.03 | 0.03 | 93 | 1011.9 |
| 20260509201413 | 9 | 186 | 11.3 | 17.7 | 0.00 | 0.03 | 0.03 | 93 | 1011.7 |
| 20260509200911 | 9 | 180 | 12.9 | 17.7 | 0.00 | 0.03 | 0.03 | 93 | 1011.8 |
| 20260509200411 | 9 | 189 | 8.0 | 14.5 | 0.00 | 0.03 | 0.03 | 94 | 1011.7 |
| 20260509195908 | 9 | 187 | 9.7 | 20.9 | 0.00 | 0.03 | 0.03 | 94 | 1011.8 |
| 20260509195403 | 8 | 181 | 17.7 | 20.9 | 0.00 | 0.03 | 0.03 | 94 | 1011.9 |
| 20260509194903 | 8 | 179 | 16.1 | 19.3 | 0.00 | 0.03 | 0.03 | 94 | 1011.9 |
| 20260509194359 | 8 | 180 | 9.7 | 17.7 | 0.00 | 0.03 | 0.03 | 94 | 1011.9 |
| 20260509193855 | 8 | 187 | 12.9 | 16.1 | 0.00 | 0.03 | 0.03 | 94 | 1012.1 |
| 20260509193350 | 8 | 185 | 14.5 | 16.1 | 0.00 | 0.03 | 0.03 | 94 | 1012.2 |
| 20260509192846 | 8 | 199 | 11.3 | 14.5 | 0.00 | 0.03 | 0.03 | 94 | 1012.3 |
| 20260509192342 | 8 | 179 | 9.7 | 12.9 | 0.00 | 0.03 | 0.03 | 94 | 1012.4 |
| 20260509191838 | 8 | 185 | 8.0 | 9.7 | 0.00 | 0.03 | 0.03 | 95 | 1012.2 |
| 20260509191333 | 8 | 167 | 8.0 | 9.7 | 0.00 | 0.03 | 0.03 | 95 | 1012.5 |
| 20260509190830 | 8 | 172 | 6.4 | 8.0 | 0.00 | 0.03 | 0.03 | 95 | 1012.3 |
| 20260509190327 | 8 | 176 | 6.4 | 11.3 | 0.00 | 0.03 | 0.03 | 94 | 1012.4 |
| 20260509185824 | 8 | 191 | 4.8 | 9.7 | 0.00 | 0.03 | 0.03 | 94 | 1012.6 |
| 20260509185321 | 8 | 183 | 8.0 | 11.3 | 0.05 | 0.03 | 0.03 | 94 | 1012.5 |
| 20260509184818 | 8 | 179 | 11.3 | 14.5 | 0.05 | 0.03 | 0.03 | 93 | 1012.5 |
| 20260509184315 | 9 | 177 | 9.7 | 11.3 | 0.05 | 0.03 | 0.03 | 93 | 1012.5 |
| 20260509183812 | 9 | 171 | 12.9 | 14.5 | 0.05 | 0.03 | 0.03 | 92 | 1012.7 |
| 20260509183307 | 8 | 180 | 8.0 | 17.7 | 0.00 | 0.00 | 0.00 | 91 | 1012.7 |
| 20260509182803 | 8 | 166 | 12.9 | 17.7 | 0.05 | 0.00 | 0.00 | 90 | 1012.7 |
| 20260509182300 | 8 | 178 | 11.3 | 16.1 | 0.00 | 0.00 | 0.00 | 90 | 1012.8 |
| 20260509181757 | 9 | 167 | 6.4 | 14.5 | 0.00 | 0.00 | 0.00 | 90 | 1012.6 |
| 20260509181255 | 9 | 177 | 9.7 | 11.3 | 0.00 | 0.00 | 0.00 | 89 | 1012.6 |
| 20260509180752 | 9 | 177 | 11.3 | 12.9 | 0.00 | 0.00 | 0.00 | 88 | 1012.7 |
| 20260509180248 | 9 | 193 | 14.5 | 17.7 | 0.00 | 0.00 | 0.00 | 87 | 1012.7 |
| 20260509175744 | 9 | 187 | 11.3 | 19.3 | 0.00 | 0.00 | 0.00 | 85 | 1013.0 |
| 20260509175241 | 9 | 175 | 12.9 | 16.1 | 0.00 | 0.00 | 0.00 | 83 | 1012.9 |
| 20260509174737 | 10 | 175 | 14.5 | 17.7 | 0.00 | 0.00 | 0.00 | 83 | 1013.0 |
| 20260509174232 | 9 | 179 | 11.3 | 16.1 | 0.00 | 0.00 | 0.00 | 83 | 1013.1 |
| 20260509173729 | 9 | 167 | 14.5 | 16.1 | 0.00 | 0.00 | 0.00 | 83 | 1012.9 |
| 20260509173225 | 9 | 165 | 16.1 | 19.3 | 0.00 | 0.00 | 0.00 | 83 | 1013.1 |
| 20260509172721 | 9 | 182 | 12.9 | 17.7 | 0.00 | 0.00 | 0.00 | 82 | 1013.2 |
| 20260509172217 | 9 | 163 | 8.0 | 14.5 | 0.00 | 0.00 | 0.00 | 82 | 1013.3 |
| 20260509171713 | 9 | 172 | 17.7 | 17.7 | 0.00 | 0.00 | 0.00 | 81 | 1013.4 |
| 20260509171210 | 9 | 182 | 14.5 | 20.9 | 0.00 | 0.00 | 0.00 | 81 | 1013.2 |
| 20260509170706 | 9 | 148 | 12.9 | 17.7 | 0.00 | 0.00 | 0.00 | 81 | 1013.4 |
| 20260509170202 | 9 | 157 | 14.5 | 17.7 | 0.00 | 0.00 | 0.00 | 81 | 1013.5 |
| 20260509165701 | 9 | 153 | 12.9 | 19.3 | 0.00 | 0.00 | 0.00 | 82 | 1013.6 |
| 20260509165156 | 9 | 156 | 12.9 | 22.5 | 0.00 | 0.00 | 0.00 | 81 | 1013.5 |
| 20260509164652 | 8 | 149 | 17.7 | 19.3 | 0.00 | 0.00 | 0.00 | 81 | 1013.6 |
| 20260509164148 | 9 | 153 | 19.3 | 24.1 | 0.00 | 0.00 | 0.00 | 79 | 1013.6 |
| 20260509163646 | 9 | 156 | 24.1 | 25.7 | 0.00 | 0.00 | 0.00 | 78 | 1013.6 |
| 20260509163142 | 9 | 168 | 12.9 | 22.5 | 0.00 | 0.00 | 0.00 | 77 | 1013.9 |
| 20260509162639 | 10 | 162 | 17.7 | 24.1 | 0.00 | 0.00 | 0.00 | 76 | 1013.7 |
| 20260509162135 | 10 | 164 | 17.7 | 30.6 | 0.00 | 0.00 | 0.00 | 72 | 1013.7 |
| 20260509161631 | 10 | 165 | 19.3 | 24.1 | 0.00 | 0.00 | 0.00 | 73 | 1013.8 |
| 20260509161126 | 10 | 165 | 12.9 | 24.1 | 0.00 | 0.00 | 0.00 | 74 | 1013.7 |
| 20260509160622 | 10 | 192 | 14.5 | 25.7 | 0.00 | 0.00 | 0.00 | 72 | 1013.8 |
| 20260509160118 | 10 | 156 | 29.0 | 33.8 | 0.00 | 0.00 | 0.00 | 69 | 1013.8 |
| 20260509155614 | 11 | 162 | 27.4 | 37.0 | 0.00 | 0.00 | 0.00 | 66 | 1013.8 |
| 20260509155111 | 11 | 178 | 22.5 | 33.8 | 0.00 | 0.00 | 0.00 | 64 | 1013.8 |
| 20260509154606 | 12 | 157 | 17.7 | 24.1 | 0.00 | 0.00 | 0.00 | 61 | 1013.8 |
| 20260509154104 | 12 | 156 | 24.1 | 25.7 | 0.00 | 0.00 | 0.00 | 59 | 1013.7 |
| 20260509153601 | 12 | 161 | 24.1 | 27.4 | 0.00 | 0.00 | 0.00 | 60 | 1013.7 |
| 20260509153058 | 12 | 180 | 22.5 | 29.0 | 0.00 | 0.00 | 0.00 | 57 | 1014.0 |
| 20260509152554 | 12 | 168 | 20.9 | 25.7 | 0.00 | 0.00 | 0.00 | 55 | 1014.1 |
| 20260509152051 | 12 | 146 | 20.9 | 25.7 | 0.00 | 0.00 | 0.00 | 54 | 1013.9 |
| 20260509151547 | 12 | 165 | 14.5 | 22.5 | 0.00 | 0.00 | 0.00 | 54 | 1013.8 |
| 20260509151045 | 12 | 157 | 24.1 | 27.4 | 0.00 | 0.00 | 0.00 | 49 | 1013.9 |
| 20260509150543 | 12 | 182 | 14.5 | 17.7 | 0.00 | 0.00 | 0.00 | 53 | 1013.9 |
| 20260509150041 | 12 | 169 | 17.7 | 20.9 | 0.00 | 0.00 | 0.00 | 52 | 1013.9 |
| 20260509145536 | 12 | 174 | 14.5 | 20.9 | 0.00 | 0.00 | 0.00 | 55 | 1013.9 |
| 20260509145031 | 12 | 166 | 20.9 | 22.5 | 0.00 | 0.00 | 0.00 | 52 | 1014.1 |
| 20260509144528 | 12 | 187 | 19.3 | 24.1 | 0.00 | 0.00 | 0.00 | 51 | 1014.0 |
| 20260509144026 | 12 | 160 | 16.1 | 20.9 | 0.00 | 0.00 | 0.00 | 54 | 1014.0 |
| 20260509143523 | 12 | 191 | 14.5 | 17.7 | 0.00 | 0.00 | 0.00 | 50 | 1014.1 |
| 20260509143021 | 12 | 169 | 22.5 | 24.1 | 0.00 | 0.00 | 0.00 | 51 | 1014.0 |
| 20260509142515 | 12 | 163 | 22.5 | 24.1 | 0.00 | 0.00 | 0.00 | 52 | 1014.1 |
| 20260509142011 | 12 | 196 | 12.9 | 19.3 | 0.00 | 0.00 | 0.00 | 57 | 1013.9 |
| 20260509141508 | 12 | 196 | 14.5 | 19.3 | 0.00 | 0.00 | 0.00 | 56 | 1013.9 |
| 20260509141005 | 12 | 186 | 11.3 | 19.3 | 0.00 | 0.00 | 0.00 | 55 | 1014.0 |
| 20260509140501 | 12 | 159 | 8.0 | 17.7 | 0.00 | 0.00 | 0.00 | 54 | 1014.1 |
| 20260509140000 | 11 | 183 | 11.3 | 16.1 | 0.00 | 0.00 | 0.00 | 57 | 1014.1 |
| 20260509135457 | 11 | 183 | 11.3 | 16.1 | 0.00 | 0.00 | 0.00 | 57 | 1014.1 |
| 20260509134954 | 11 | 183 | 11.3 | 16.1 | 0.00 | 0.00 | 0.00 | 57 | 1014.0 |
| 20260509134451 | 11 | 183 | 11.3 | 16.1 | 0.00 | 0.00 | 0.00 | 57 | 1014.2 |
| 20260509133949 | 11 | 183 | 11.3 | 16.1 | 0.00 | 0.00 | 0.00 | 57 | 1014.0 |
| 20260509133445 | 11 | 183 | 11.3 | 16.1 | 0.00 | 0.00 | 0.00 | 57 | 1014.1 |
| 20260509132943 | 11 | 183 | 11.3 | 16.1 | 0.00 | 0.00 | 0.00 | 57 | 1014.3 |
| 20260509132441 | 11 | 183 | 11.3 | 16.1 | 0.00 | 0.00 | 0.00 | 57 | 1014.3 |
| 20260509131938 | 11 | 183 | 11.3 | 16.1 | 0.00 | 0.00 | 0.00 | 57 | 1014.0 |
| 20260509131435 | 8 | 151 | 19.3 | 20.9 | 0.00 | 0.00 | 0.00 | 67 | 1014.0 |
| 20260509130932 | 8 | 151 | 19.3 | 20.9 | 0.00 | 0.00 | 0.00 | 67 | 1014.3 |
| 20260509130427 | 8 | 151 | 19.3 | 20.9 | 0.00 | 0.00 | 0.00 | 67 | 1014.4 |
| 20260509125924 | 8 | 151 | 19.3 | 20.9 | 0.00 | 0.00 | 0.00 | 67 | 1014.5 |
| 20260509125421 | 8 | 151 | 19.3 | 20.9 | 0.00 | 0.00 | 0.00 | 67 | 1014.5 |
| 20260509124917 | 8 | 151 | 19.3 | 20.9 | 0.00 | 0.00 | 0.00 | 67 | 1014.5 |
| 20260509124414 | 8 | 151 | 19.3 | 20.9 | 0.00 | 0.00 | 0.00 | 67 | 1014.6 |
| 20260509123912 | 8 | 151 | 19.3 | 20.9 | 0.00 | 0.00 | 0.00 | 67 | 1014.4 |
| 20260509123409 | -17 | 0.0 | 0.0 | 0.00 | 0.00 | 0.00 | 1014.7 | ||
| 20260509122904 | -17 | 0.0 | 0.0 | 0.00 | 0.00 | 0.00 | 1014.5 | ||
| 20260509122401 | -17 | 0.0 | 0.0 | 0.00 | 0.00 | 0.00 | 1014.8 | ||
| 20260509121858 | -17 | 0.0 | 0.0 | 0.00 | 0.00 | 0.00 | 1015.0 | ||
| 20260509121355 | -17 | 0.0 | 0.0 | 0.00 | 0.00 | 0.00 | 1014.9 | ||
| 20260509120854 | -17 | 0.0 | 0.0 | 0.00 | 0.00 | 0.00 | 1014.9 | ||
| 20260509120351 | 5 | 172 | 11.3 | 17.7 | 0.00 | 0.00 | 0.00 | 77 | 1015.0 |
| 20260509115849 | 5 | 172 | 11.3 | 17.7 | 0.00 | 0.00 | 0.00 | 77 | 1014.8 |
| 20260509115346 | 5 | 172 | 11.3 | 17.7 | 0.00 | 0.00 | 0.00 | 77 | 1015.1 |
| 20260509114843 | 5 | 172 | 11.3 | 17.7 | 0.00 | 0.00 | 0.00 | 77 | 1015.0 |
| 20260509114342 | 5 | 172 | 11.3 | 17.7 | 0.00 | 0.00 | 0.00 | 77 | 1014.9 |
| 20260509113841 | 5 | 172 | 11.3 | 17.7 | 0.00 | 0.00 | 0.00 | 77 | 1015.0 |
| 20260509113337 | 5 | 172 | 11.3 | 17.7 | 0.00 | 0.00 | 0.00 | 77 | 1015.0 |
| 20260509112834 | 5 | 172 | 11.3 | 17.7 | 0.00 | 0.00 | 0.00 | 77 | 1015.1 |
| 20260509112331 | 5 | 172 | 11.3 | 17.7 | 0.00 | 0.00 | 0.00 | 77 | 1014.9 |
| 20260509111828 | 5 | 172 | 11.3 | 17.7 | 0.00 | 0.00 | 0.00 | 77 | 1014.8 |
| 20260509111325 | 5 | 172 | 11.3 | 17.7 | 0.00 | 0.00 | 0.00 | 77 | 1014.9 |
| 20260509110823 | 5 | 172 | 11.3 | 17.7 | 0.00 | 0.00 | 0.00 | 77 | 1014.9 |
| 20260509110319 | 4 | 178 | 12.9 | 17.7 | 0.00 | 0.00 | 0.00 | 77 | 1014.6 |
| 20260509105817 | 4 | 178 | 12.9 | 17.7 | 0.00 | 0.00 | 0.00 | 77 | 1014.8 |
| 20260509105315 | 4 | 178 | 12.9 | 17.7 | 0.00 | 0.00 | 0.00 | 77 | 1014.6 |
| 20260509104811 | 4 | 178 | 14.5 | 17.7 | 0.00 | 0.00 | 0.00 | 77 | 1014.8 |
| 20260509104308 | 4 | 180 | 11.3 | 17.7 | 0.00 | 0.00 | 0.00 | 76 | 1014.7 |
| 20260509103806 | 5 | 163 | 4.8 | 14.5 | 0.00 | 0.00 | 0.00 | 76 | 1014.5 |
| 20260509103303 | 4 | 164 | 11.3 | 14.5 | 0.00 | 0.00 | 0.00 | 76 | 1014.6 |
| 20260509102802 | 3 | 156 | 12.9 | 12.9 | 0.00 | 0.00 | 0.00 | 78 | 1014.5 |
| 20260509102258 | 3 | 156 | 12.9 | 12.9 | 0.00 | 0.00 | 0.00 | 78 | 1014.5 |
| 20260509101755 | 2 | 175 | 6.4 | 6.4 | 0.00 | 0.00 | 0.00 | 84 | 1014.5 |
| 20260509101251 | 2 | 175 | 6.4 | 6.4 | 0.00 | 0.00 | 0.00 | 84 | 1014.5 |